Overview Statistics Trail Chart Weather Telemetry Raw packets
 

This is the latest recevied weather packets stored in our database for station/object I8ZSE-10. If no packets are shown the sender has not sent any weather packets the latest 10 day(s).

<< 18 19 20 21 22 23 24 >>
Time Temp. Humidity Pressure Rain* Wind** Luminosity Snow
1788374130 25° C 58% - 0 mm - - -
1788373530 26.67° C 54% - 0 mm - - -
1788372930 27.22° C 55% - 0 mm - - -
1788372330 27.22° C 55% - 0 mm - - -
1788371730 27.22° C 56% - 0 mm - - -
1788371130 27.22° C 54% - 0 mm - - -
1788370530 27.78° C 52% - 0 mm - - -
1788369930 27.78° C 52% - 0 mm - - -
1788369330 27.78° C 51% - 0 mm - - -
1788368730 27.78° C 49% - 0 mm - - -
1788368130 28.33° C 48% - 0 mm - - -
1788367530 28.33° C 46% - 0 mm - - -
1788366930 28.89° C 45% - 0 mm - - -
1788366330 29.44° C 42% - 0 mm - - -
1788365730 28.89° C 41% - 0 mm - - -
1788365130 29.44° C 40% - 0 mm - - -
1788364530 30.56° C 38% - 0 mm - - -
1788363930 30.56° C 37% - 0 mm - - -
1788363330 30.56° C 36% - 0 mm - - -
1788362730 30.56° C 34% - 0 mm - - -
1788362130 30.56° C 31% - 0 mm - - -
1788361530 30° C 31% - 0 mm - - -
1788360930 31.11° C 31% - 0 mm - - -
1788360330 30.56° C 30% - 0 mm - - -
1788359430 31.11° C 32% - 0 mm - - -

* Rain latest hour (hover to see other rain measurements)
** Current wind speed in m/s (hover to see current wind gust speed)